Regional Weather Roundup
Issued by NWS Charleston, WV

Home | Current Version | Previous Version | Graphics & Text | Print | Product List | Glossary On
Versions: 1 2 3 4 5 6 7 8 9 10 11 12 13 14 15 16 17 18 19 20 21 22 23 24 25 26 27 28 29 30 31 32 33 34 35 36 37 38 39 40 41 42 43 44 45 46 47 48 49 50
000
ASUS41 KRLX 011010
RWRRLX
West Virginia Regional Weather Roundup
National Weather Service Charleston WV
600 AM EDT WED OCT 01 2014

Note: "fair" indicates few or no clouds below 12,000 feet with no
significant weather and/or obstructions to visibility.

WVZ003-011100-
Northern Panhandle of West Virginia

CITY           SKY/WX    TMP DP  RH WIND       PRES   REMARKS
WHEELING       CLOUDY    57  55  93 CALM      29.98R
$$

WVZ009-011100-
Northwest West Virginia

CITY           SKY/WX    TMP DP  RH WIND       PRES   REMARKS
PARKERSBURG    CLOUDY    58  56  93 CALM      30.00R
$$

WVZ006-011100-
Western West Virginia

CITY           SKY/WX    TMP DP  RH WIND       PRES   REMARKS
HUNTINGTON     CLOUDY    60  56  86 NW3       29.96S
$$

WVZ015-011100-
West Central West Virginia

CITY           SKY/WX    TMP DP  RH WIND       PRES   REMARKS
CHARLESTON     CLOUDY    61  58  90 CALM      29.97R FOG
$$

WVZ031-011100-
North Central West Virginia

CITY           SKY/WX    TMP DP  RH WIND       PRES   REMARKS
CLARKSBURG     FOG       56  56 100 NE3       29.97R VSB 1/4
MORGANTOWN     FOG       56  53  90 CALM      29.98S VSB 1/4
$$

WVZ035-042-045-011100-
South Central West Virginia

CITY           SKY/WX    TMP DP  RH WIND       PRES   REMARKS
BECKLEY        CLEAR     53  50  89 CALM      30.01R
BLUEFIELD      CLEAR     58  50  75 W5        30.02S
LEWISBURG      FOG       50  48  93 CALM      30.01R VSB 1
$$

WVZ047-011100-
Northern Mountains of West Virginia

CITY           SKY/WX    TMP DP  RH WIND       PRES   REMARKS
ELKINS         FOG       51  51 100 CALM      30.00R VSB 1/4
$$

WVZ052-011100-
Eastern Panhandle of West Virginia

CITY           SKY/WX    TMP DP  RH WIND       PRES   REMARKS
MARTINSBURG    CLOUDY    62  58  86 CALM      29.98S FOG
PETERSBURG     FOG      N/A N/A N/A CALM      29.99R VSB 1/4
$$


USA.gov is the U.S. government's official web portal to all federal, state and local government web resources and services.